Lexington, NE

12:13 AM CDT on October 20, 2017 (GMT -0500)
Kelly

Weather History for KLXN - March, 2012

Change the Weather History Date:

Wednesday, March 14, 2012

  Actual Average Record
Temperature  
Mean Temperature 55 °F -  
Max Temperature 76 °F 47 °F 118 °F (1999)
Min Temperature 34 °F 23 °F 10 °F (1997)
Degree Days  
Heating Degree Days 10    
Growing Degree Days 5 (Base 50)    
Moisture  
Dew Point 30 °F    
Average Humidity 47    
Maximum Humidity 87    
Minimum Humidity 16    
Precipitation  
Precipitation 0.00 in - - ()
Sea Level Pressure  
Sea Level Pressure 29.84 in    
Wind  
Wind Speed 5 mph (North)    
Max Wind Speed 17 mph    
Max Gust Speed 16 mph    
Visibility 10 miles    
Events      
Averages and records for this station are not official NWS values.
T = Trace of Precipitation, MM = Missing Value Source: NWS Daily Summary

Daily Weather History Graph

Daily Weather History Graph

Search for Another Location

Airport or City:

Trip Planner

Search our weather history database for the weather conditions in past years. The results will help you decide how hot, cold, wet, or windy it might be!

Date:

Astronomy

Mar. 14, 2012 Rise Set
Actual Time 7:51 AM CDT 7:45 PM CDT
Civil Twilight 7:24 AM CDT 8:12 PM CDT
Nautical Twilight 6:52 AM CDT 8:44 PM CDT
Astronomical Twilight 6:20 AM CDT 9:16 PM CDT
Moon 2:24 AM CDT (3/14) 12:01 PM CDT (3/14)
Length of Visible Light 12h 48m
Length of Day
11h 53m
Waning Gibbous, 54% of the Moon is Illuminated
Mar 14
Waning Gibbous
Mar 14
Last Quarter
Mar 22
New
Mar 30
First Quarter
Apr 6
Full

Hourly Weather History & Observations

Time (CDT) Temp. Windchill Dew Point Humidity Pressure Visibility Wind Dir Wind Speed Gust Speed Precip Events Conditions
12:15 AM 46.6 °F - 30.9 °F 54% 29.74 in 10.0 mi Calm Calm - N/A   Clear
12:35 AM 48.2 °F - 29.8 °F 49% 29.74 in 10.0 mi Calm Calm - N/A   Clear
12:55 AM 40.5 °F 38.4 °F 32.4 °F 73% 29.74 in 10.0 mi East 3.5 mph - N/A   Clear
1:15 AM 41.4 °F 38.4 °F 31.6 °F 68% 29.73 in 10.0 mi East 4.6 mph - N/A   Clear
1:35 AM 40.6 °F 36.7 °F 31.6 °F 70% 29.73 in 10.0 mi ENE 5.8 mph - N/A   Clear
1:55 AM 40.8 °F 36.2 °F 31.6 °F 70% 29.73 in 10.0 mi SE 6.9 mph - N/A   Clear
2:15 AM 47.8 °F - 30.4 °F 51% 29.73 in 10.0 mi SE 4.6 mph - N/A   Clear
2:35 AM 44.1 °F 42.5 °F 30.2 °F 58% 29.74 in 10.0 mi SE 3.5 mph - N/A   Clear
2:55 AM 41.5 °F 39.6 °F 31.1 °F 66% 29.74 in 10.0 mi ESE 3.5 mph - N/A   Clear
3:15 AM 38.8 °F - 30.9 °F 73% 29.73 in 10.0 mi Calm Calm - N/A   Clear
3:35 AM 36.9 °F - 30.9 °F 79% 29.74 in 10.0 mi Calm Calm - N/A   Clear
3:55 AM 37.8 °F 35.3 °F 31.5 °F 78% 29.77 in 10.0 mi NNW 3.5 mph - N/A   Clear
4:15 AM 37.4 °F 32.8 °F 31.1 °F 78% 29.76 in 7.0 mi NNE 5.8 mph - N/A   Clear
4:35 AM 36.9 °F - 30.7 °F 79% 29.75 in 10.0 mi Calm Calm - N/A   Clear
4:55 AM 36.3 °F 33.7 °F 31.6 °F 83% 29.76 in 10.0 mi East 3.5 mph - N/A   Clear
5:15 AM 34.2 °F 27.5 °F 30.6 °F 87% 29.78 in 10.0 mi West 8.1 mph - N/A   Clear
5:35 AM 35.6 °F 29.9 °F 30.6 °F 82% 29.78 in 10.0 mi West 6.9 mph - N/A   Clear
5:55 AM 35.2 °F 31.2 °F 30.2 °F 82% 29.78 in 10.0 mi West 4.6 mph - N/A   Clear
6:15 AM 35.4 °F 30.5 °F 30.2 °F 81% 29.80 in 10.0 mi West 5.8 mph - N/A   Clear
6:35 AM 35.6 °F 28.0 °F 30.4 °F 81% 29.81 in 10.0 mi West 10.4 mph - N/A   Clear
6:55 AM 36.5 °F 30.3 °F 30.2 °F 78% 29.82 in 10.0 mi West 8.1 mph - N/A   Clear
7:15 AM 37.4 °F 31.4 °F 30.2 °F 75% 29.83 in 10.0 mi West 8.1 mph - N/A   Clear
7:35 AM 35.4 °F 30.5 °F 28.9 °F 77% 29.83 in 10.0 mi WNW 5.8 mph - N/A   Clear
7:55 AM 35.6 °F 29.2 °F 28.6 °F 76% 29.84 in 10.0 mi WNW 8.1 mph - N/A   Clear
8:15 AM 35.2 °F 28.1 °F 29.3 °F 79% 29.85 in 10.0 mi WNW 9.2 mph - N/A   Clear
8:35 AM 38.5 °F 34.1 °F 31.5 °F 76% 29.86 in 10.0 mi West 5.8 mph - N/A   Clear
8:55 AM 41.5 °F 36.4 °F 32.7 °F 71% 29.87 in 10.0 mi West 8.1 mph - N/A   Clear
9:15 AM 45.5 °F 41.8 °F 33.1 °F 62% 29.88 in 10.0 mi WNW 6.9 mph - N/A   Clear
9:35 AM 48.6 °F - 34.3 °F 58% 29.88 in 10.0 mi WNW 9.2 mph - N/A   Clear
9:55 AM 52.3 °F - 34.0 °F 50% 29.88 in 10.0 mi West 8.1 mph - N/A   Clear
10:15 AM 56.3 °F - 35.4 °F 46% 29.90 in 10.0 mi NW 9.2 mph - N/A   Clear
10:35 AM 61.0 °F - 34.0 °F 36% 29.91 in 10.0 mi NW 9.2 mph - N/A   Clear
10:55 AM 66.4 °F - 29.1 °F 25% 29.91 in 10.0 mi North 17.3 mph - N/A   Clear
11:15 AM 67.1 °F - 28.8 °F 24% 29.91 in 10.0 mi North 13.8 mph - N/A   Clear
11:35 AM 68.4 °F - 28.9 °F 23% 29.92 in 10.0 mi NNE 13.8 mph - N/A   Clear
11:55 AM 68.7 °F - 29.7 °F 23% 29.92 in 10.0 mi North 12.7 mph - N/A   Clear
12:15 PM 69.8 °F - 29.8 °F 23% 29.92 in 10.0 mi NNE 12.7 mph - N/A   Clear
12:35 PM 70.7 °F - 29.8 °F 22% 29.93 in 10.0 mi North 12.7 mph 16.1 mph N/A   Clear
12:55 PM 71.1 °F - 29.1 °F 21% 29.93 in 10.0 mi North 10.4 mph - N/A   Clear
1:15 PM 71.4 °F - 29.3 °F 21% 29.93 in 10.0 mi NNE 9.2 mph - N/A   Clear
1:35 PM 72.1 °F - 30.0 °F 21% 29.92 in 10.0 mi North 10.4 mph - N/A   Clear
1:55 PM 72.5 °F - 30.2 °F 21% 29.92 in 10.0 mi NE 3.5 mph - N/A   Clear
2:15 PM 73.0 °F - 29.1 °F 20% 29.92 in 10.0 mi NNE 6.9 mph - N/A   Clear
2:35 PM 74.1 °F - 30.9 °F 20% 29.91 in 10.0 mi NE 4.6 mph - N/A   Clear
2:55 PM 74.3 °F - 30.2 °F 20% 29.90 in 10.0 mi NNE 6.9 mph - N/A   Clear
3:15 PM 74.5 °F - 30.0 °F 19% 29.90 in 10.0 mi Calm Calm - N/A   Clear
3:35 PM 74.5 °F - 28.6 °F 18% 29.89 in 10.0 mi North 4.6 mph - N/A   Clear
3:55 PM 75.4 °F - 27.7 °F 17% 29.89 in 10.0 mi NE 3.5 mph - N/A   Clear
4:15 PM 75.6 °F - 29.8 °F 19% 29.89 in 10.0 mi North 6.9 mph - N/A   Clear
4:35 PM 76.1 °F - 28.9 °F 18% 29.89 in 10.0 mi North 4.6 mph - N/A   Clear
4:55 PM 76.1 °F - 27.3 °F 17% 29.89 in 10.0 mi NNW 3.5 mph - N/A   Clear
5:15 PM 75.7 °F - 26.6 °F 16% 29.89 in 7.0 mi North 4.6 mph - N/A   Clear
5:35 PM 75.9 °F - 27.0 °F 16% 29.89 in 10.0 mi Calm Calm - N/A   Clear
5:55 PM 75.4 °F - 25.7 °F 16% 29.89 in 10.0 mi Calm Calm - N/A   Clear
6:15 PM 75.2 °F - 25.5 °F 16% 29.89 in 10.0 mi East 3.5 mph - N/A   Clear
6:35 PM 74.5 °F - 30.0 °F 19% 29.90 in 10.0 mi East 3.5 mph - N/A   Clear
6:55 PM 72.5 °F - 32.2 °F 23% 29.90 in 10.0 mi East 6.9 mph - N/A   Clear
7:15 PM 68.9 °F - 34.7 °F 28% 29.90 in 10.0 mi ENE 8.1 mph - N/A   Clear
7:35 PM 64.9 °F - 34.9 °F 33% 29.91 in 10.0 mi East 6.9 mph - N/A   Clear
7:55 PM 62.2 °F - 34.7 °F 36% 29.92 in 10.0 mi East 8.1 mph - N/A   Clear
8:15 PM 60.3 °F - 35.2 °F 39% 29.92 in 10.0 mi East 8.1 mph - N/A   Clear
8:35 PM 56.7 °F - 36.1 °F 46% 29.93 in 10.0 mi East 8.1 mph - N/A   Clear
8:55 PM 54.7 °F - 36.0 °F 49% 29.93 in 10.0 mi East 8.1 mph - N/A   Clear
9:15 PM 54.3 °F - 36.1 °F 50% 29.93 in 10.0 mi East 10.4 mph - N/A   Clear
9:35 PM 54.7 °F - 36.0 °F 49% 29.94 in 10.0 mi East 10.4 mph - N/A   Clear
9:55 PM 53.4 °F - 35.8 °F 51% 29.94 in 10.0 mi East 9.2 mph - N/A   Clear
10:15 PM 53.8 °F - 35.2 °F 50% 29.94 in 10.0 mi East 9.2 mph - N/A   Clear
10:35 PM 55.6 °F - 34.7 °F 45% 29.94 in 10.0 mi East 10.4 mph - N/A   Clear
10:55 PM 53.8 °F - 35.1 °F 49% 29.94 in 10.0 mi ESE 6.9 mph - N/A   Clear
11:15 PM 51.8 °F - 35.6 °F 54% 29.94 in 10.0 mi ESE 8.1 mph - N/A   Clear
11:35 PM 51.6 °F - 35.8 °F 55% 29.95 in 10.0 mi SSE 9.2 mph - N/A   Clear
11:55 PM 51.4 °F - 35.8 °F 55% 29.94 in 10.0 mi SE 9.2 mph - N/A   Clear